{"data":{"norad_id":64186,"intl_designator":"2025-113S","name":"STARLINK-34200","alt_names":[],"object_type":"PAYLOAD","status":"ACTIVE","operator":null,"country":"US","launch_date":"2025-05-28","launch_site_code":"AFETR","launch_vehicle":null,"mission":null,"orbit_class":"UNKNOWN","rcs_meters":null,"size_class":null,"mass_kg":null,"dimensions":null,"purposes":["comms"],"wikipedia_slug":null,"has_3d_model":false,"image_url":null,"decayed_at":null,"tle_current":{"epoch":"2026-05-25T02:45:23.618016Z","epoch_age_seconds":75597,"freshness":"FRESH","line1":"1 64186U 25113S   26145.11485669  .00024487  00000+0  79789-3 0  9992","line2":"2 64186  53.1599  95.6147 0001499  85.3421 274.7751 15.31715243 56777","mean_motion":15.31715243,"eccentricity":0.0001499,"inclination_deg":53.1599,"raan_deg":95.6147,"arg_perigee_deg":85.3421,"mean_anomaly_deg":274.7751,"bstar":0.00079789,"rev_number":5677,"period_min":94.012252380516,"perigee_km":469.66791716225,"apogee_km":471.72119686305,"semimajor_km":6848.8315570127,"source":"CELESTRAK","updated_at":"2026-05-25T13:38:20.312948Z"}}}